GW6230 Weather Reports


time (UTC)temp
C
wind
direction
speed
KPH
gust
KPH
rain 1hr
cm
rain 24hr
cm
rain mn
cm
humidity
%
barometer
mb
20260508023437 6 251 0.0 0.0 0.00 0.00 0.00 78 1015.0
20260508022935 6 251 0.0 0.0 0.00 0.00 0.00 75 1014.9
20260508022430 6 251 0.0 0.0 0.00 0.00 0.00 76 1014.9
20260508021927 7 251 0.0 1.6 0.00 0.00 0.00 78 1014.8
20260508021424 7 54 0.0 0.0 0.00 0.00 0.00 73 1014.7
20260508020919 7 264 0.0 3.2 0.00 0.00 0.00 73 1014.5
20260508020418 7 246 0.0 1.6 0.00 0.00 0.00 71 1014.4
20260508015914 8 229 0.0 1.6 0.00 0.00 0.00 69 1014.5
20260508015412 8 345 0.0 0.0 0.00 0.00 0.00 68 1014.4
20260508014908 8 345 0.0 0.0 0.00 0.00 0.00 66 1014.5
20260508014406 9 345 0.0 0.0 0.00 0.00 0.00 66 1014.5
20260508013902 10 345 0.0 0.0 0.00 0.00 0.00 64 1014.2
20260508013357 10 35 0.0 1.6 0.00 0.00 0.00 57 1014.2
20260508012855 10 282 0.0 1.6 0.00 0.00 0.00 53 1014.0
20260508012352 11 53 0.0 3.2 0.00 0.00 0.00 51 1013.8
20260508011850 11 276 0.0 4.8 0.00 0.00 0.00 51 1013.9
20260508011347 11 258 0.0 4.8 0.00 0.00 0.00 52 1013.7
20260508010844 11 14 0.0 3.2 0.00 0.00 0.00 51 1013.6
20260508010342 10 278 0.0 3.2 0.00 0.00 0.00 54 1013.7
20260508005839 10 254 0.0 1.6 0.00 0.00 0.00 56 1013.6
20260508005335 11 270 0.0 1.6 0.00 0.00 0.00 53 1013.5
20260508004831 11 63 0.0 3.2 0.00 0.00 0.00 51 1013.3
20260508004328 12 75 1.6 3.2 0.00 0.00 0.00 48 1013.3
20260508003824 12 237 0.0 6.4 0.00 0.00 0.00 46 1013.1
20260508003322 12 0 0.0 6.4 0.00 0.00 0.00 46 1013.1
20260508002819 12 279 0.0 3.2 0.00 0.00 0.00 45 1013.1
20260508002315 13 255 1.6 3.2 0.00 0.00 0.00 45 1012.7
20260508001811 13 252 9.7 14.5 0.00 0.00 0.00 40 1013.0
20260508001307 13 243 3.2 4.8 0.00 0.00 0.00 46 1012.7
20260508000803 13 8 0.0 9.7 0.00 0.00 0.00 39 1012.6
20260508000300 13 275 8.0 16.1 0.00 0.00 0.00 40 1012.5
20260507235757 13 282 1.6 4.8 0.00 0.00 0.00 42 1012.4
20260507235255 13 101 3.2 6.4 0.00 0.00 0.00 42 1012.5
20260507234751 13 270 1.6 4.8 0.00 0.00 0.00 42 1012.3
20260507234248 14 114 1.6 6.4 0.00 0.00 0.00 43 1012.4
20260507233744 14 257 11.3 17.7 0.00 0.00 0.00 40 1012.3
20260507233242 15 93 4.8 8.0 0.00 0.00 0.00 41 1012.1
20260507232739 15 277 4.8 8.0 0.00 0.00 0.00 43 1012.1
20260507232237 15 301 3.2 9.7 0.00 0.00 0.00 40 1011.8
20260507231733 16 270 0.0 8.0 0.00 0.00 0.00 39 1011.8
20260507231230 16 270 6.4 9.7 0.00 0.00 0.00 38 1012.1
20260507230726 16 289 1.6 6.4 0.00 0.00 0.00 40 1011.9
20260507230224 15 263 8.0 8.0 0.00 0.00 0.00 42 1012.1
20260507225723 15 267 6.4 11.3 0.00 0.00 0.00 41 1011.9
20260507225220 16 246 0.0 4.8 0.00 0.00 0.00 42 1011.7
20260507224716 16 236 8.0 8.0 0.00 0.00 0.00 43 1011.8
20260507224213 15 287 3.2 4.8 0.00 0.00 0.00 41 1011.8
20260507223709 15 84 0.0 3.2 0.00 0.00 0.00 41 1011.7
20260507223206 15 264 4.8 6.4 0.00 0.00 0.00 43 1011.8
20260507222702 15 284 16.1 16.1 0.00 0.00 0.00 39 1011.8
20260507222159 17 276 8.0 9.7 0.00 0.00 0.00 36 1011.6
20260507221655 17 348 3.2 9.7 0.00 0.00 0.00 39 1011.5
20260507221152 17 266 4.8 8.0 0.00 0.00 0.00 40 1011.5
20260507220649 17 270 0.0 12.9 0.00 0.00 0.00 40 1011.5
20260507220147 17 288 3.2 6.4 0.00 0.00 0.00 38 1011.4
20260507215642 16 266 3.2 11.3 0.00 0.00 0.00 38 1011.3
20260507215140 17 243 3.2 8.0 0.00 0.00 0.00 39 1011.3
20260507214637 17 281 8.0 8.0 0.00 0.00 0.00 36 1011.4
20260507214134 16 254 4.8 12.9 0.00 0.00 0.00 39 1011.1
20260507213630 17 245 8.0 14.5 0.00 0.00 0.00 38 1011.2
20260507213127 18 225 4.8 8.0 0.00 0.00 0.00 38 1011.1
20260507212623 18 272 8.0 8.0 0.00 0.00 0.00 45 1011.2
20260507212120 17 281 8.0 16.1 0.00 0.00 0.00 41 1011.1
20260507211617 17 127 0.0 11.3 0.00 0.00 0.00 38 1011.2
20260507211113 18 279 0.0 11.3 0.00 0.00 0.00 43 1011.1
20260507210611 17 264 8.0 12.9 0.00 0.00 0.00 40 1011.0
20260507210107 18 240 1.6 6.4 0.00 0.00 0.00 40 1011.0
20260507205604 17 241 3.2 6.4 0.00 0.00 0.00 40 1011.0
20260507205100 17 228 3.2 9.7 0.00 0.00 0.00 46 1011.3
20260507204556 17 254 4.8 9.7 0.00 0.00 0.00 40 1011.2
20260507204054 17 144 6.4 14.5 0.00 0.00 0.00 45 1011.0
20260507203552 17 299 4.8 9.7 0.00 0.00 0.00 41 1011.0
20260507203049 18 270 4.8 9.7 0.00 0.00 0.00 42 1011.0
20260507202544 17 220 3.2 11.3 0.00 0.00 0.00 45 1011.0
20260507202041 17 270 3.2 11.3 0.00 0.00 0.00 41 1011.1
20260507201536 17 254 6.4 9.7 0.00 0.00 0.00 46 1011.4
20260507201033 16 273 4.8 9.7 0.00 0.00 0.00 43 1011.1
20260507200528 16 257 6.4 9.7 0.00 0.00 0.00 47 1011.3
20260507200025 16 239 3.2 6.4 0.00 0.00 0.00 47 1011.3
20260507195522 17 243 4.8 12.9 0.00 0.00 0.00 42 1011.5
20260507195020 17 188 0.0 1.6 0.00 0.00 0.00 45 1011.7
20260507194516 16 84 3.2 8.0 0.00 0.00 0.00 50 1011.7
20260507194012 17 224 12.9 16.1 0.00 0.00 0.00 44 1011.8
20260507193509 16 228 9.7 11.3 0.00 0.00 0.00 46 1011.9
20260507193006 17 299 11.3 14.5 0.00 0.00 0.00 42 1011.9
20260507192502 18 250 4.8 6.4 0.00 0.00 0.00 50 1011.8
20260507191959 18 279 4.8 9.7 0.00 0.00 0.00 45 1011.8
20260507191454 17 250 6.4 14.5 0.00 0.00 0.00 47 1011.7
20260507190952 17 248 4.8 12.9 0.00 0.00 0.00 42 1011.7
20260507190449 17 278 3.2 11.3 0.00 0.00 0.00 43 1011.8
20260507185948 16 278 0.0 14.5 0.00 0.00 0.00 48 1011.7
20260507185445 16 35 8.0 9.7 0.00 0.00 0.00 51 1011.8
20260507184941 15 292 6.4 14.5 0.00 0.00 0.00 45 1011.8
20260507184440 16 273 9.7 11.3 0.00 0.00 0.00 46 1011.7
20260507183937 17 49 16.1 20.9 0.00 0.00 0.00 43 1012.1
20260507183434 16 243 3.2 11.3 0.00 0.00 0.00 50 1011.8
20260507182931 17 287 3.2 12.9 0.00 0.00 0.00 47 1012.1
20260507182427 17 138 0.0 16.1 0.00 0.00 0.00 55 1012.2
20260507181923 16 283 6.4 11.3 0.00 0.00 0.00 46 1012.2
20260507181419 15 255 4.8 11.3 0.00 0.00 0.00 48 1012.2
20260507180916 16 273 6.4 16.1 0.00 0.00 0.00 46 1012.1
20260507180413 16 297 1.6 16.1 0.00 0.00 0.00 43 1012.3
20260507175909 17 63 1.6 12.9 0.00 0.00 0.00 47 1011.9
20260507175406 16 147 8.0 8.0 0.00 0.00 0.00 49 1012.1
20260507174903 16 253 4.8 9.7 0.00 0.00 0.00 46 1012.1
20260507174400 17 135 4.8 4.8 0.00 0.00 0.00 49 1012.3
20260507173858 16 267 6.4 12.9 0.00 0.00 0.00 48 1012.4
20260507173355 16 240 0.0 8.0 0.00 0.00 0.00 44 1012.6
20260507172851 16 282 8.0 9.7 0.00 0.00 0.00 48 1012.6
20260507172348 16 232 3.2 11.3 0.00 0.00 0.00 45 1012.6
20260507171844 15 328 0.0 9.7 0.00 0.00 0.00 45 1012.6
20260507171341 16 258 0.0 17.7 0.00 0.00 0.00 49 1012.8
20260507170838 17 51 8.0 11.3 0.00 0.00 0.00 47 1012.9
20260507170334 16 35 0.0 6.4 0.00 0.00 0.00 51 1013.0
20260507165830 15 254 8.0 11.3 0.00 0.00 0.00 49 1013.1
20260507165326 16 84 0.0 6.4 0.00 0.00 0.00 51 1012.8
20260507164822 16 227 4.8 4.8 0.00 0.00 0.00 43 1013.2
20260507164320 15 41 8.0 11.3 0.00 0.00 0.00 49 1013.2
20260507163817 16 129 9.7 11.3 0.00 0.00 0.00 45 1013.2
20260507163314 16 219 6.4 6.4 0.00 0.00 0.00 49 1013.2
20260507162810 16 308 8.0 19.3 0.00 0.00 0.00 48 1013.3
20260507162307 15 289 3.2 8.0 0.00 0.00 0.00 50 1013.3
20260507161804 14 273 4.8 9.7 0.00 0.00 0.00 51 1013.2
20260507161300 15 0 3.2 14.5 0.00 0.00 0.00 46 1013.2
20260507160756 15 127 0.0 11.3 0.00 0.00 0.00 45 1013.6
20260507160252 15 277 4.8 8.0 0.00 0.00 0.00 49 1013.6
20260507155748 15 223 6.4 12.9 0.00 0.00 0.00 47 1013.6
20260507155244 15 298 9.7 20.9 0.00 0.00 0.00 46 1013.7
20260507154741 15 90 3.2 8.0 0.00 0.00 0.00 56 1013.6
20260507154239 16 270 3.2 9.7 0.00 0.00 0.00 51 1013.6
20260507153735 15 254 3.2 9.7 0.00 0.00 0.00 49 1013.7
20260507153232 15 297 4.8 11.3 0.00 0.00 0.00 54 1013.8
20260507152728 15 132 0.0 8.0 0.00 0.00 0.00 54 1013.5
20260507152225 15 326 8.0 9.7 0.00 0.00 0.00 50 1013.9
20260507151721 13 80 4.8 8.0 0.00 0.00 0.00 56 1013.7
20260507151217 15 60 4.8 8.0 0.00 0.00 0.00 47 1013.9
20260507150714 15 225 4.8 6.4 0.00 0.00 0.00 54 1013.8
20260507150211 15 220 4.8 9.7 0.00 0.00 0.00 57 1014.0
20260507145707 14 251 1.6 8.0 0.00 0.00 0.00 53 1014.2
20260507145204 13 253 0.0 6.4 0.00 0.00 0.00 60 1013.9
20260507144700 14 48 9.7 11.3 0.00 0.00 0.00 50 1014.1
20260507144159 13 248 3.2 8.0 0.00 0.00 0.00 52 1014.2
20260507143655 14 187 1.6 11.3 0.00 0.00 0.00 52 1014.3
20260507143152 13 139 3.2 8.0 0.00 0.00 0.00 55 1014.2
20260507142647 15 126 1.6 9.7 0.00 0.00 0.00 51 1014.2
20260507142145 14 98 0.0 8.0 0.00 0.00 0.00 53 1014.4
20260507141641 13 172 0.0 8.0 0.00 0.00 0.00 52 1014.6
20260507141138 14 143 6.4 8.0 0.00 0.00 0.00 53 1014.7
20260507140634 15 53 3.2 6.4 0.00 0.00 0.00 55 1014.8
20260507140132 13 265 0.0 8.0 0.00 0.00 0.00 58 1014.6
20260507135629 13 229 0.0 4.8 0.00 0.00 0.00 54 1014.8
20260507135126 13 243 4.8 4.8 0.00 0.00 0.00 55 1014.9
20260507134622 13 129 3.2 6.4 0.00 0.00 0.00 58 1015.0
20260507134119 13 101 4.8 11.3 0.00 0.00 0.00 55 1015.0
20260507133614 13 90 4.8 14.5 0.00 0.00 0.00 58 1014.9
20260507133112 13 248 4.8 6.4 0.00 0.00 0.00 60 1015.2
20260507132609 13 47 8.0 9.7 0.00 0.00 0.00 59 1015.0
20260507132105 14 8 0.0 3.2 0.00 0.00 0.00 52 1015.0
20260507131602 13 122 4.8 6.4 0.00 0.00 0.00 58 1015.2
20260507131100 13 264 0.0 4.8 0.00 0.00 0.00 59 1015.2
20260507130556 13 107 0.0 4.8 0.00 0.00 0.00 58 1015.2
20260507130054 13 22 0.0 4.8 0.00 0.00 0.00 66 1015.1
20260507125553 12 144 3.2 8.0 0.00 0.00 0.00 68 1015.2
20260507125050 12 26 0.0 3.2 0.00 0.00 0.00 71 1015.2
20260507124546 12 105 0.0 4.8 0.00 0.00 0.00 71 1015.0
20260507124044 12 85 3.2 3.2 0.00 0.00 0.00 75 1015.0
20260507123542 12 120 0.0 3.2 0.00 0.00 0.00 78 1015.2
20260507123038 11 114 0.0 3.2 0.00 0.00 0.00 81 1015.1
20260507122533 11 117 0.0 1.6 0.00 0.00 0.00 83 1015.3
20260507122030 10 66 0.0 3.2 0.00 0.00 0.00 89 1015.3
20260507121525 10 54 1.6 3.2 0.00 0.00 0.00 92 1015.3
20260507121021 9 61 3.2 3.2 0.00 0.00 0.00 94 1015.3
20260507120518 9 49 1.6 3.2 0.00 0.00 0.00 97 1015.1
20260507120015 8 90 3.2 3.2 0.00 0.00 0.00 98 1015.0
20260507115511 7 40 1.6 4.8 0.00 0.00 0.00 98 1015.3
20260507115007 8 49 0.0 4.8 0.00 0.00 0.00 99 1015.0
20260507114503 7 90 1.6 1.6 0.00 0.00 0.00 99 1014.9
20260507114000 6 63 1.6 3.2 0.00 0.00 0.00 98 1015.0
20260507113458 7 90 0.0 0.0 0.00 0.00 0.00 99 1015.1
20260507112955 6 126 0.0 1.6 0.00 0.00 0.00 98 1014.9
20260507112452 6 126 0.0 0.0 0.00 0.00 0.00 98 1015.0
20260507111949 6 126 0.0 1.6 0.00 0.00 0.00 98 1014.9
20260507111446 6 126 0.0 0.0 0.00 0.00 0.00 98 1014.9
20260507110942 6 126 0.0 0.0 0.00 0.00 0.00 98 1014.8
20260507110439 5 131 0.0 1.6 0.00 0.00 0.00 98 1014.8
20260507105935 5 114 0.0 0.0 0.00 0.00 0.00 98 1014.8
20260507105432 5 74 0.0 0.0 0.00 0.00 0.00 98 1014.7
20260507104929 5 74 0.0 0.0 0.00 0.00 0.00 98 1014.8
20260507104426 5 120 0.0 3.2 0.00 0.00 0.00 98 1014.4
20260507103921 5 246 0.0 1.6 0.00 0.00 0.00 98 1014.6
20260507103418 5 270 0.0 0.0 0.00 0.00 0.00 98 1014.5
20260507102914 5 270 0.0 3.2 0.00 0.00 0.00 98 1014.7
20260507102411 5 254 0.0 0.0 0.00 0.00 0.00 98 1014.3
20260507101908 5 254 0.0 0.0 0.00 0.00 0.00 98 1014.2
20260507101403 5 254 0.0 0.0 0.00 0.00 0.00 98 1014.4
20260507100900 5 254 0.0 0.0 0.00 0.00 0.00 98 1014.5
20260507100357 5 254 0.0 0.0 0.00 0.00 0.00 98 1014.5
20260507095855 5 254 0.0 0.0 0.00 0.00 0.00 98 1014.3
20260507095352 5 82 0.0 0.0 0.00 0.00 0.00 98 1014.7
20260507094849 5 82 0.0 0.0 0.00 0.00 0.00 97 1014.2
20260507094345 6 82 0.0 0.0 0.00 0.00 0.00 97 1014.5
20260507093843 6 246 0.0 0.0 0.00 0.00 0.00 97 1014.6
20260507093341 6 286 0.0 0.0 0.00 0.00 0.00 97 1014.3
20260507092839 6 286 0.0 0.0 0.00 0.00 0.00 97 1014.1
20260507092334 6 286 0.0 0.0 0.00 0.00 0.00 97 1014.2
20260507091831 6 250 0.0 0.0 0.00 0.00 0.00 97 1014.2
20260507091328 6 250 0.0 3.2 0.00 0.00 0.00 96 1013.9
20260507090823 6 277 0.0 0.0 0.00 0.00 0.00 96 1014.1
20260507090320 7 66 0.0 0.0 0.00 0.00 0.00 95 1014.3
20260507085817 7 66 0.0 0.0 0.00 0.00 0.00 95 1014.1
20260507085314 7 262 0.0 0.0 0.00 0.00 0.00 95 1014.1
20260507084811 7 99 0.0 0.0 0.00 0.00 0.00 96 1014.3
20260507084307 8 99 0.0 0.0 0.00 0.00 0.00 96 1014.3
20260507083805 8 99 0.0 0.0 0.00 0.00 0.00 96 1014.2
20260507083301 8 99 0.0 0.0 0.00 0.00 0.00 96 1014.3
20260507082757 8 99 0.0 0.0 0.00 0.00 0.00 96 1014.4
20260507082253 8 99 0.0 0.0 0.00 0.00 0.00 96 1014.1
20260507081750 8 99 0.0 0.0 0.00 0.00 0.00 96 1014.2
20260507081246 8 99 0.0 0.0 0.00 0.00 0.00 95 1014.2
20260507080743 8 63 0.0 1.6 0.00 0.00 0.00 95 1014.1
20260507080239 8 26 0.0 0.0 0.00 0.00 0.00 95 1014.2
20260507075735 8 26 0.0 0.0 0.00 0.00 0.00 95 1014.1
20260507075231 8 26 0.0 1.6 0.00 0.00 0.00 95 1014.2
20260507074727 8 90 0.0 0.0 0.00 0.00 0.00 95 1014.1
20260507074225 8 90 0.0 0.0 0.00 0.00 0.00 95 1014.3
20260507073722 9 90 0.0 0.0 0.00 0.00 0.00 95 1014.1
20260507073219 9 81 0.0 0.0 0.00 0.00 0.00 94 1014.2
20260507072717 9 53 0.0 3.2 0.00 0.00 0.00 94 1014.2
20260507072213 9 270 0.0 0.0 0.00 0.00 0.00 94 1013.9
20260507071711 9 234 0.0 1.6 0.00 0.00 0.00 94 1014.3
20260507071207 9 83 0.0 0.0 0.00 0.00 0.00 93 1014.0
20260507070704 9 83 0.0 0.0 0.00 0.00 0.00 92 1014.1
20260507070201 9 83 0.0 0.0 0.00 0.00 0.00 92 1013.9
20260507065657 9 83 0.0 0.0 0.00 0.00 0.00 92 1014.0
20260507065154 9 81 0.0 1.6 0.00 0.00 0.00 92 1014.0
20260507064652 9 75 0.0 1.6 0.00 0.00 0.00 92 1014.1
20260507064150 9 74 0.0 1.6 0.00 0.00 0.00 92 1014.0
20260507063648 10 8 0.0 0.0 0.00 0.00 0.00 91 1014.2
20260507063145 10 279 0.0 0.0 0.00 0.00 0.00 90 1014.0
20260507062641 10 279 0.0 0.0 0.00 0.00 0.00 89 1013.9
20260507062139 10 279 0.0 0.0 0.00 0.00 0.00 88 1013.9
20260507061637 10 279 0.0 0.0 0.00 0.00 0.00 86 1013.9
20260507061134 10 279 0.0 0.0 0.00 0.00 0.00 84 1014.0
20260507060632 10 254 0.0 1.6 0.00 0.00 0.00 83 1014.0
20260507060128 10 20 0.0 3.2 0.00 0.00 0.00 82 1014.0
20260507055624 10 81 0.0 0.0 0.00 0.00 0.00 83 1014.2
20260507055120 10 82 0.0 3.2 0.00 0.00 0.00 83 1014.3
20260507054616 10 8 0.0 1.6 0.00 0.00 0.00 84 1014.4
20260507054113 10 262 1.6 3.2 0.00 0.00 0.00 86 1014.2
20260507053611 10 246 0.0 1.6 0.00 0.00 0.00 91 1014.3
20260507053110 10 255 1.6 4.8 0.00 0.00 0.00 94 1014.5
20260507052607 10 261 0.0 0.0 0.00 0.00 0.00 97 1014.4
20260507052103 10 55 4.8 4.8 0.00 0.00 0.00 98 1014.3
20260507051601 10 106 0.0 4.8 0.00 0.00 0.00 98 1014.7
20260507051058 10 83 0.0 1.6 0.00 0.00 0.00 99 1014.7
20260507050554 10 215 0.0 1.6 0.00 0.00 0.00 99 1014.6
20260507050051 10 294 0.0 3.2 0.00 0.00 0.00 99 1014.4
20260507045548 10 246 0.0 3.2 0.00 0.00 0.00 99 1014.6
20260507045045 10 240 1.6 1.6 0.00 0.00 0.00 99 1014.5
20260507044541 10 246 0.0 0.0 0.00 0.00 0.00 99 1014.4
20260507044039 10 246 0.0 0.0 0.00 0.00 0.00 99 1014.4
20260507043534 10 246 0.0 0.0 0.00 0.00 0.00 99 1014.3
20260507043032 10 246 0.0 0.0 0.00 0.00 0.00 99 1014.4
20260507042527 11 240 0.0 1.6 0.00 0.00 0.00 99 1014.5
20260507042024 11 270 0.0 0.0 0.00 0.00 0.00 99 1014.3
20260507041521 11 270 0.0 1.6 0.00 0.00 0.00 99 1014.6
20260507041017 11 254 0.0 0.0 0.00 0.00 0.00 99 1014.5
20260507040514 11 261 0.0 0.0 0.00 0.00 0.00 99 1014.3
20260507040009 11 261 0.0 0.0 0.00 1.32 1.32 99 1014.1
20260507035506 11 261 0.0 3.2 0.00 1.32 1.32 99 1014.2
20260507035002 11 49 0.0 3.2 0.00 1.32 1.32 98 1014.1
20260507034459 11 261 0.0 0.0 0.00 1.32 1.32 98 1014.0
20260507033957 11 261 0.0 0.0 0.00 1.32 1.32 98 1014.1
20260507033455 11 270 0.0 1.6 0.00 1.32 1.32 98 1014.4
20260507032952 11 84 0.0 0.0 0.00 1.32 1.32 98 1014.3
20260507032449 11 84 0.0 1.6 0.00 1.32 1.32 98 1014.1
20260507031945 11 99 0.0 0.0 0.00 1.32 1.32 98 1014.3
20260507031441 11 90 0.0 1.6 0.00 1.32 1.32 98 1014.4
20260507030938 11 66 0.0 1.6 0.00 1.32 1.32 98 1014.6
20260507030436 11 251 0.0 0.0 0.00 1.32 1.32 98 1014.5
20260507025932 11 251 0.0 0.0 0.00 1.32 1.32 98 1014.5
20260507025430 11 251 0.0 1.6 0.00 1.32 1.32 98 1014.5
20260507024928 11 262 1.6 1.6 0.00 1.32 1.32 98 1014.3
20260507024425 11 66 0.0 1.6 0.00 1.32 1.32 98 1013.9
20260507023920 11 270 0.0 1.6 0.00 1.32 1.32 98 1013.9